1397779225731,1.21031
1397779285731,1.21952
1397779345731,1.22054
1397779405731,1.22056
1397779465731,1.22222
1397779525731,1.21583
1397779585731,1.21145
1397779645731,1.20540
1397779705731,1.23118
1397779765731,1.20980
1397779825731,1.21766
1397779885731,1.20925
1397779945731,1.21566
1397780005731,1.21187
1397780065731,1.20996
1397780125731,1.20547
1397780185731,1.20120
1397780245731,1.20613
1397780305731,1.20519
1397780365731,1.19790
1397780425731,1.19876
1397780485731,1.21398
1397780545731,1.21101
1397780605731,1.20457
1397780665731,1.20697
1397780725731,1.20479
1397780785731,1.21196
1397780845731,1.20748
1397780905731,1.21041
1397780965731,1.21384
1397781025731,1.20879
1397781085731,1.20742
1397781145731,1.21231
1397781205731,1.20832
1397781265731,1.20539
1397781325731,1.20925
1397781385731,1.21145
1397781445731,1.21165
1397781505731,1.20259
1397781565731,1.20097
1397781625731,1.20761
1397781685731,1.19404
1397781745731,1.20786
1397781805731,1.21169
1397781865731,1.20249
1397781925731,1.20007
1397781985731,1.20969
1397782045731,1.19691
1397782105731,1.20461
1397782165731,1.19437
1397782225731,1.19803
1397782285731,1.19125
1397782345731,1.19244
1397782405731,1.18842
1397782465731,1.18661
1397782525731,1.18293
1397782585731,1.19627
1397782645731,1.18999
1397782705731,1.18582
1397782765731,1.18963
1397782825743,1.18911
1397782885743,1.18302
1397782945743,1.18935
1397783005743,1.18151
1397783065743,1.17784
1397783125743,1.17954
1397783185743,1.18564
1397783245743,1.18108
1397783305743,1.16605
1397783365743,1.16844
1397783425743,1.16640
1397783485743,1.16175
1397783545743,1.17130
1397783605743,1.15662
1397783665743,1.16709
1397783725743,1.15575
1397783785743,1.16149
1397783845743,1.15797
1397783905743,1.16299
1397783965743,1.15367
1397784025743,1.15643
1397784085743,1.15235
1397784145743,1.14959
1397784205743,1.16010
1397784265743,1.14952
1397784325743,1.15731
1397784385743,1.15217
1397784445743,1.15205
1397784505743,1.14498
1397784565743,1.14565
1397784625743,1.15687
1397784685743,1.15615
1397784745743,1.15273
1397784805743,1.14789
1397784865743,1.14317
1397784925743,1.13428
1397784985743,1.14520
1397785045743,1.14589
1397785105743,1.14914
1397785165743,1.13787
1397785225743,1.14277
1397785285743,1.14770
1397785345743,1.14396
1397785405743,1.13794
1397785465743,1.14171
1397785525743,1.13969
1397785585743,1.13918
1397785645743,1.14213
1397785705743,1.14051
1397785765743,1.13892
1397785825743,1.14477
1397785885743,1.13863
1397785945743,1.14905
1397786005743,1.14671
1397786065743,1.14090
1397786125743,1.14411
1397786185743,1.14410
1397786245743,1.13924
1397786305743,1.14726
1397786365743,1.14522
1397786425754,1.14819
1397786485754,1.13950
1397786545754,1.14067
1397786605754,1.14359
1397786665754,1.14715
1397786725754,1.13436
1397786785754,1.13165
1397786845754,1.13585
1397786905754,1.13580
1397786965754,1.12991
1397787025754,1.14200
1397787085754,1.12512
1397787145754,1.11890
1397787205754,1.12110
1397787265754,1.12447
1397787325754,1.12488
1397787385754,1.12297
1397787445754,1.13161
1397787505754,1.12899
1397787565754,1.12202
1397787625754,1.11573
1397787685754,1.11994
1397787745754,1.12240
1397787805754,1.12284
1397787865754,1.12455
1397787925754,1.12317
1397787985754,1.11735
1397788045754,1.11566
1397788105754,1.11707
1397788165754,1.11635
1397788225754,1.11377
1397788285754,1.11649
1397788345754,1.11243
1397788405754,1.11802
1397788465754,1.11580
1397788525754,1.11562
1397788585754,1.10836
1397788645754,1.10649
1397788705754,1.11146
1397788765754,1.10992
1397788825754,1.11937
1397788885754,1.11279
1397788945754,1.11613
1397789005754,1.11997
1397789065754,1.10442
1397789125754,1.10781
1397789185754,1.10876
1397789245754,1.10016
1397789305754,1.09733
1397789365754,1.10864
1397789425754,1.10962
1397789485754,1.10293
1397789545754,1.10371
1397789605754,1.09433
1397789665754,1.09641
1397789725754,1.10058
1397789785754,1.10277
1397789845754,1.10510
1397789905754,1.10208
1397789965754,1.10414
1397790025765,1.11214
1397790085765,1.10979
1397790145765,1.10958
1397790205765,1.10913
1397790265765,1.10882
1397790325765,1.12113
1397790385765,1.11331
1397790445765,1.11220
1397790505765,1.10515
1397790565765,1.10797
1397790625765,1.11128
1397790685765,1.11184
1397790745765,1.10699
1397790805765,1.09753
1397790865765,1.10602
1397790925765,1.10225
1397790985765,1.10104
1397791045765,1.10746
1397791105765,1.10567
1397791165765,1.10611
1397791225765,1.10809
1397791285765,1.10506
1397791345765,1.10547
1397791405765,1.10225
1397791465765,1.10613
1397791525765,1.10474
1397791585765,1.10434
1397791645765,1.10131
1397791705765,1.10260
1397791765765,1.11089
1397791825765,1.10583
1397791885765,1.10877
1397791945765,1.10952
1397792005765,1.10316
1397792065765,1.10262
1397792125765,1.10576
1397792185765,1.09605
1397792245765,1.10161
1397792305765,1.09419
1397792365765,1.09248
1397792425765,1.08961
1397792485765,1.09019
1397792545765,1.10101
1397792605765,1.09878
1397792665765,1.10531
1397792725765,1.08920
1397792785765,1.09748
1397792845765,1.09748
1397792905765,1.10364
1397792965765,1.10065
1397793025765,1.09079
1397793085765,1.10105
1397793145765,1.09340
1397793205765,1.09664
1397793265765,1.09271
1397793325765,1.10928
1397793385765,1.10322
1397793445765,1.10067
1397793505765,1.08994
1397793565765,1.10397
1397793625776,1.09287
1397793685776,1.09516
1397793745776,1.09633
1397793805776,1.09385
1397793865776,1.10239
1397793925776,1.10257
1397793985776,1.11310
1397794045776,1.11594
1397794105776,1.11691
1397794165776,1.10860
1397794225776,1.11227
1397794285776,1.09900
1397794345776,1.09244
1397794405776,1.09137
1397794465776,1.09515
1397794525776,1.09265
1397794585776,1.09565
1397794645776,1.10321
1397794705776,1.10273
1397794765776,1.10274
1397794825776,1.09081
1397794885776,1.09880
1397794945776,1.09036
1397795005776,1.09826
1397795065776,1.09013
1397795125776,1.09775
1397795185776,1.08823
1397795245776,1.09691
1397795305776,1.08747
1397795365776,1.09187
1397795425776,1.08354
1397795485776,1.08357
1397795545776,1.09447
1397795605776,1.08045
1397795665776,1.09073
1397795725776,1.08351
1397795785776,1.08528
1397795845776,1.07857
1397795905776,1.07892
1397795965776,1.09320
1397796025776,1.09634
1397796085776,1.09959
1397796145776,1.09006
1397796205776,1.08957
1397796265776,1.09340
1397796325776,1.09198
1397796385776,1.10515
1397796445776,1.09694
1397796505776,1.09997
1397796565776,1.09901
1397796625776,1.10654
1397796685776,1.08733
1397796745776,1.09378
1397796805776,1.08991
1397796865776,1.09293
1397796925776,1.08672
1397796985776,1.08891
1397797045776,1.08193
1397797105776,1.08287
1397797165776,1.08418
1397797225787,1.08144
1397797285787,1.08343
1397797345787,1.07696
1397797405787,1.08321
1397797465787,1.08087
1397797525787,1.08020
1397797585787,1.06992
1397797645787,1.07822
1397797705787,1.08307
1397797765787,1.08326
1397797825787,1.07795
1397797885787,1.06765
1397797945787,1.06814
1397798005787,1.07752
1397798065787,1.08489
1397798125787,1.07278
1397798185787,1.08721
1397798245787,1.08434
1397798305787,1.07764
1397798365787,1.07652
1397798425787,1.06732
1397798485787,1.07768
1397798545787,1.07294
1397798605787,1.06893
1397798665787,1.07701
1397798725787,1.07747
1397798785787,1.08123
1397798845787,1.07128
1397798905787,1.07520
1397798965787,1.08222
1397799025787,1.07700
1397799085787,1.09080
1397799145787,1.08820
1397799205787,1.08917
1397799265787,1.08931
1397799325787,1.08273
1397799385787,1.09226
1397799445787,1.08279
1397799505787,1.08165
1397799565787,1.08230
1397799625787,1.08343
1397799685787,1.08230
1397799745787,1.07915
1397799805787,1.08037
1397799865787,1.08120
1397799925787,1.08605
1397799985787,1.07799
1397800045787,1.08045
1397800105787,1.08282
1397800165787,1.08427
1397800225787,1.08385
1397800285787,1.07592
1397800345787,1.07809
1397800405787,1.08889
1397800465787,1.09309
1397800525787,1.09663
1397800585787,1.10005
1397800645787,1.09887
1397800705787,1.10082
1397800765787,1.10203
1397800825798,1.10892
1397800885798,1.11065
1397800945798,1.10641
1397801005798,1.10825
1397801065798,1.10473
1397801125798,1.10895
1397801185798,1.10894
1397801245798,1.10052
1397801305798,1.10087
1397801365798,1.09179
1397801425798,1.10200
1397801485798,1.08915
1397801545798,1.10065
1397801605798,1.10349
1397801665798,1.09319
1397801725798,1.08384
1397801785798,1.08988
1397801845798,1.09781
1397801905798,1.09898
1397801965798,1.08874
1397802025798,1.09458
1397802085798,1.09245
1397802145798,1.09339
1397802205798,1.09866
1397802265798,1.09091
1397802325798,1.09126
1397802385798,1.08895
1397802445798,1.09655
1397802505798,1.09907
1397802565798,1.09471
1397802625798,1.08696
1397802685798,1.09078
1397802745798,1.08978
1397802805798,1.09207
1397802865798,1.07853
1397802925798,1.10139
1397802985798,1.09192
1397803045798,1.08005
1397803105798,1.08625
1397803165798,1.08476
1397803225798,1.08273
1397803285798,1.08055
1397803345798,1.08794
1397803405798,1.09111
1397803465798,1.09118
1397803525798,1.08760
1397803585798,1.09237
1397803645798,1.10044
1397803705798,1.09461
1397803765798,1.08542
1397803825798,1.09513
1397803885798,1.09074
1397803945798,1.09631
1397804005798,1.08890
1397804065798,1.09533
1397804125798,1.09857
1397804185798,1.09425
1397804245798,1.10136
1397804305798,1.10691
1397804365798,1.10724
1397804425808,1.10860
1397804485808,1.11909
1397804545808,1.10957
1397804605808,1.10911
1397804665808,1.11663
1397804725808,1.12166
1397804785808,1.12362
1397804845808,1.11637
1397804905808,1.12824
1397804965808,1.13008
1397805025808,1.13321
1397805085808,1.13492
1397805145808,1.14853
1397805205808,1.14477
1397805265808,1.13860
1397805325808,1.14503
1397805385808,1.14352
1397805445808,1.15132
1397805505808,1.14400
1397805565808,1.14472
1397805625808,1.14996
1397805685808,1.14990
1397805745808,1.14652
1397805805808,1.13639
1397805865808,1.14546
1397805925808,1.14991
1397805985808,1.15175
1397806045808,1.14488
1397806105808,1.14341
1397806165808,1.15180
1397806225808,1.14823
1397806285808,1.14246
1397806345808,1.15101
1397806405808,1.14139
1397806465808,1.14662
1397806525808,1.15413
1397806585808,1.14677
1397806645808,1.15073
1397806705808,1.14080
1397806765808,1.13776
1397806825808,1.14596
1397806885808,1.14837
1397806945808,1.14486
1397807005808,1.14375
1397807065808,1.14614
1397807125808,1.14379
1397807185808,1.14478
1397807245808,1.14121
1397807305808,1.13650
1397807365808,1.13657
1397807425808,1.13510
1397807485808,1.12634
1397807545808,1.13080
1397807605808,1.13138
1397807665808,1.13443
1397807725808,1.12576
1397807785808,1.11847
1397807845808,1.12617
1397807905808,1.13778
1397807965808,1.14564
1397808025819,1.12620
1397808085819,1.12102
1397808145819,1.12271
1397808205819,1.12849
1397808265819,1.13786
1397808325819,1.13822
1397808385819,1.15268
1397808445819,1.18962
1397808505819,1.20954
1397808565819,1.20932
1397808625819,1.22256
1397808685819,1.23278
1397808745819,1.23490
1397808805819,1.22612
1397808865819,1.22892
1397808925819,1.22373
1397808985819,1.21992
1397809045819,1.22941
1397809105819,1.21757
1397809165819,1.22328
1397809225819,1.22470
1397809285819,1.22580
1397809345819,1.22662
1397809405819,1.23674
1397809465819,1.22977
1397809525819,1.23531
1397809585819,1.24274
1397809645819,1.24428
1397809705819,1.23737
1397809765819,1.23769
1397809825819,1.24406
1397809885819,1.24126
1397809945819,1.22959
1397810005819,1.23152
1397810065819,1.23531
1397810125819,1.21238
1397810185819,1.21822
1397810245819,1.21644
1397810305819,1.20656
1397810365819,1.20302
1397810425819,1.19365
1397810485819,1.19925
1397810545819,1.20455
1397810605819,1.19663
1397810665819,1.20655
1397810725819,1.18614
1397810785819,1.18916
1397810845819,1.18148
1397810905819,1.18508
1397810965819,1.18013
1397811025819,1.18015
1397811085819,1.18556
1397811145819,1.18837
1397811205819,1.18042
1397811265819,1.18581
1397811325819,1.18238
1397811385819,1.18720
1397811445819,1.18094
1397811505819,1.17593
1397811565819,1.17217
1397811625830,1.17096
1397811685830,1.18458
1397811745830,1.16605
1397811805830,1.18104
1397811865830,1.17456
1397811925830,1.17134
1397811985830,1.17007
1397812045830,1.17634
1397812105830,1.16471
1397812165830,1.16371
1397812225830,1.16954
1397812285830,1.17205
1397812345830,1.16413
1397812405830,1.17609
1397812465830,1.16748
1397812525830,1.18201
1397812585830,1.17532
1397812645830,1.16378
1397812705830,1.16720
1397812765830,1.16124
1397812825830,1.15581
1397812885830,1.15181
1397812945830,1.15609
1397813005830,1.15264
1397813065830,1.15411
1397813125830,1.14652
1397813185830,1.15609
1397813245830,1.14123
1397813305830,1.13433
1397813365830,1.14790
1397813425830,1.13946
1397813485830,1.13486
1397813545830,1.13588
1397813605830,1.12848
1397813665830,1.12775
1397813725830,1.12410
1397813785830,1.13710
1397813845830,1.13033
1397813905830,1.12145
1397813965830,1.13058
1397814025830,1.12734
1397814085830,1.12390
1397814145830,1.13264
1397814205830,1.13115
1397814265830,1.12506
1397814325830,1.13189
1397814385830,1.12131
1397814445830,1.12554
1397814505830,1.12716
1397814565830,1.12609
1397814625830,1.12779
1397814685830,1.13054
1397814745830,1.12506
1397814805830,1.13833
1397814865830,1.12746
1397814925830,1.12464
1397814985830,1.12501
1397815045830,1.13543
1397815105830,1.13955
1397815165830,1.14174
1397815225840,1.13485
1397815285840,1.13658
1397815345840,1.13975
1397815405840,1.13132
1397815465840,1.14017
1397815525840,1.13854
1397815585840,1.12748
1397815645840,1.15048
1397815705840,1.14683
1397815765840,1.13640
1397815825840,1.14316
1397815885840,1.12554
1397815945840,1.13715
1397816005840,1.13216
1397816065840,1.13175
1397816125840,1.12420
1397816185840,1.12660
1397816245840,1.13148
1397816305840,1.12426
1397816365840,1.13556
1397816425840,1.13357
1397816485840,1.12802
1397816545840,1.12862
1397816605840,1.13658
1397816665840,1.12413
1397816725840,1.12624
1397816785840,1.12449
1397816845840,1.12327
1397816905840,1.13226
1397816965840,1.13211
1397817025840,1.12876
1397817085840,1.12467
1397817145840,1.12985
1397817205840,1.13265
1397817265840,1.12613
1397817325840,1.12721
1397817385840,1.12900
1397817445840,1.11865
1397817505840,1.11576
1397817565840,1.12091
1397817625840,1.11753
1397817685840,1.11321
1397817745840,1.11900
1397817805840,1.11379
1397817865840,1.11543
1397817925840,1.10996
1397817985840,1.11065
1397818045840,1.10505
1397818105840,1.11058
1397818165840,1.10998
1397818225840,1.11498
1397818285840,1.11486
1397818345840,1.11390
1397818405840,1.11639
1397818465840,1.10419
1397818525840,1.10267
1397818585840,1.10511
1397818645840,1.10636
1397818705840,1.10186
1397818765840,1.09729
1397818825851,1.10888
1397818885851,1.11029
1397818945851,1.10263
1397819005851,1.10182
1397819065851,1.10948
1397819125851,1.10004
1397819185851,1.10516
1397819245851,1.10394
1397819305851,1.10692
1397819365851,1.10291
1397819425851,1.10541
1397819485851,1.10198
1397819545851,1.10534
1397819605851,1.10141
1397819665851,1.10924
1397819725851,1.09928
1397819785851,1.10338
1397819845851,1.10144
1397819905851,1.10324
1397819965851,1.10413
1397820025851,1.10688
1397820085851,1.10894
1397820145851,1.10297
1397820205851,1.10239
1397820265851,1.10858
1397820325851,1.11288
1397820385851,1.10209
1397820445851,1.09980
1397820505851,1.09964
1397820565851,1.10582
1397820625851,1.10498
1397820685851,1.10878
1397820745851,1.11007
1397820805851,1.10910
1397820865851,1.10799
1397820925851,1.11502
1397820985851,1.11187
1397821045851,1.10912
1397821105851,1.10619
1397821165851,1.10425
1397821225851,1.10847
1397821285851,1.11260
1397821345851,1.10553
1397821405851,1.11588
1397821465851,1.10854
1397821525851,1.11522
1397821585851,1.11526
1397821645851,1.11102
1397821705851,1.12573
1397821765851,1.11772
1397821825851,1.12445
1397821885851,1.11865
1397821945851,1.13797
1397822005851,1.13419
1397822065851,1.12536
1397822125851,1.11742
1397822185851,1.12518
1397822245851,1.13831
1397822305851,1.13879
1397822365851,1.12836
1397822425862,1.13935
1397822485862,1.14108
1397822545862,1.14971
1397822605862,1.13491
1397822665862,1.14901
1397822725862,1.14023
1397822785862,1.13678
1397822845862,1.14590
1397822905862,1.13642
1397822965862,1.14011
1397823025862,1.13495
1397823085862,1.14365
1397823145862,1.14249
1397823205862,1.14429
1397823265862,1.14189
1397823325862,1.14201
1397823385862,1.13735
1397823445862,1.13821
1397823505862,1.14011
1397823565862,1.12967
1397823625862,1.13161
1397823685862,1.13354
1397823745862,1.13124
1397823805862,1.13328
1397823865862,1.12717
1397823925862,1.13186
1397823985862,1.13240
1397824045862,1.12456
1397824105862,1.13622
1397824165862,1.12923
1397824225862,1.14465
1397824285862,1.12987
1397824345862,1.13671
1397824405862,1.13612
1397824465862,1.13509
1397824525862,1.16033
1397824585862,1.16146
1397824645862,1.15280
1397824705862,1.14005
1397824765862,1.15338
1397824825862,1.16282
1397824885862,1.17048
1397824945862,1.18281
1397825005862,1.20677
1397825065862,1.22392
1397825125862,1.26169
1397825185862,1.28547
1397825245862,1.30522
1397825305862,1.34292
1397825365862,1.38694
1397825425862,1.42591
1397825485862,1.46260
1397825545862,1.53276
1397825605862,1.60158
1397825665862,1.66924
1397825725862,1.74228
1397825785862,1.84936
1397825845862,1.96256
1397825905862,2.07318
1397825965862,2.16750
1397826025862,2.26711
1397826085862,2.32675
1397826145862,2.41358
1397826205862,2.50484
1397826265862,2.56633
1397826325862,2.62999
1397826385862,2.70711
1397826445862,2.76142
1397826505862,2.78631
1397826565862,2.80710
1397826625862,2.77419
1397826685862,2.77500
1397826745862,2.73639
1397826805862,2.68528
1397826865862,2.64778
1397826925862,2.59707
1397826985862,2.54400
1397827045862,2.46874
1397827105862,2.41763
1397827165862,2.38368
1397827225862,2.34528
1397827285862,2.31718
1397827345862,2.30585
1397827405862,2.28750
1397827465862,2.26853
1397827525862,2.24451
1397827585862,2.20259
1397827645862,2.17604
1397827705862,2.15181
1397827765862,2.12016
1397827825862,2.05993
1397827885862,2.02793
1397827945862,1.98379
1397828005862,1.94630
1397828065862,1.91889
1397828125862,1.88142
1397828185862,1.83277
1397828245862,1.80174
1397828305862,1.77048
1397828365862,1.72804
1397828425862,1.71399
1397828485862,1.68252
1397828545862,1.65391
1397828605862,1.63121
1397828665862,1.60571
1397828725862,1.58423
1397828785862,1.58166
1397828845862,1.54827
1397828905862,1.54613
1397828965862,1.53088
1397829025862,1.51161
1397829085862,1.50612
1397829145862,1.49983
1397829205862,1.47985
1397829265862,1.48242
1397829325862,1.47491
1397829385862,1.46723
1397829445862,1.45576
1397829505862,1.45307
1397829565862,1.44610
1397829625872,1.43365
1397829685872,1.43006
1397829745872,1.43149
1397829805872,1.42838
1397829865872,1.42282
1397829925872,1.40745
1397829985872,1.39613
1397830045872,1.38672
1397830105872,1.37208
1397830165872,1.35593
1397830225872,1.35090
1397830285872,1.33519
1397830345872,1.32989
1397830405872,1.31723
1397830465872,1.31929
1397830525872,1.30857
1397830585872,1.31291
1397830645872,1.29095
1397830705872,1.29731
1397830765872,1.29148
1397830825872,1.29239
1397830885872,1.27732
1397830945872,1.27151
1397831005872,1.27123
1397831065872,1.24687
1397831125872,1.24927
1397831185872,1.23657
1397831245872,1.24042
1397831305872,1.22630
1397831365872,1.21889
1397831425872,1.20546
1397831485872,1.21128
1397831545872,1.20496
1397831605872,1.20429
1397831665872,1.19960
1397831725872,1.19147
1397831785872,1.18629
1397831845872,1.18038
1397831905872,1.17930
1397831965872,1.17348
1397832025872,1.17285
1397832085872,1.16343
1397832145872,1.15964
1397832205872,1.16756
1397832265872,1.15790
1397832325872,1.15865
1397832385872,1.15223
1397832445872,1.15233
1397832505872,1.14433
1397832565872,1.14951
1397832625872,1.14487
1397832685872,1.13544
1397832745872,1.14235
1397832805872,1.13003
1397832865872,1.14124
1397832925872,1.13662
1397832985872,1.13595
1397833045872,1.13162
1397833105872,1.12678
1397833165872,1.12499
1397833225882,1.11567
1397833285882,1.12207
1397833345882,1.11960
1397833405882,1.11768
1397833465882,1.11932
1397833525882,1.10628
1397833585882,1.11282
1397833645882,1.10307
1397833705882,1.10802
1397833765882,1.10404
1397833825882,1.10546
1397833885882,1.09361
1397833945882,1.10159
1397834005882,1.10171
1397834065882,1.10499
1397834125882,1.09914
1397834185882,1.09300
1397834245882,1.09644
1397834305882,1.09142
1397834365882,1.08116
1397834425882,1.09533
1397834485882,1.09049
1397834545882,1.08520
1397834605882,1.08129
1397834665882,1.08822
1397834725882,1.08480
1397834785882,1.08181
1397834845882,1.08295
1397834905882,1.09210
1397834965882,1.08263
1397835025882,1.08488
1397835085882,1.07747
1397835145882,1.07323
1397835205882,1.07370
1397835265882,1.07540
1397835325882,1.07602
1397835385882,1.07485
1397835445882,1.07522
1397835505882,1.06980
1397835565882,1.07033
1397835625882,1.07139
1397835685882,1.06189
1397835745882,1.06934
1397835805882,1.07595
1397835865882,1.07202
1397835925882,1.05555
1397835985882,1.07125
1397836045882,1.07310
1397836105882,1.06427
1397836165882,1.07789
1397836225882,1.07376
1397836285882,1.07109
1397836345882,1.07159
1397836405882,1.07230
1397836465882,1.07038
1397836525882,1.06242
1397836585882,1.06492
1397836645882,1.07410
1397836705882,1.07377
1397836765882,1.07395
1397836825892,1.06147
1397836885892,1.07095
1397836945892,1.05972
1397837005892,1.05903
1397837065892,1.06162
1397837125892,1.06150
1397837185892,1.06851
1397837245892,1.07180
1397837305892,1.05624
1397837365892,1.06441
1397837425892,1.06931
1397837485892,1.06592
1397837545892,1.06296
1397837605892,1.06246
1397837665892,1.06463
1397837725892,1.05615
1397837785892,1.05399
1397837845892,1.05678
1397837905892,1.06101
1397837965892,1.06688
1397838025892,1.05772
1397838085892,1.06789
1397838145892,1.06302
1397838205892,1.06106
1397838265892,1.05078
1397838325892,1.05817
1397838385892,1.06365
1397838445892,1.06547
1397838505892,1.05842
1397838565892,1.05315
1397838625892,1.05147
1397838685892,1.06651
1397838745892,1.05809
1397838805892,1.05269
1397838865892,1.05242
1397838925892,1.06626
1397838985892,1.06809
1397839045892,1.05767
1397839105892,1.06341
1397839165892,1.06060
1397839225892,1.05857
1397839285892,1.05975
1397839345892,1.06935
1397839405892,1.06586
1397839465892,1.06131
1397839525892,1.06551
1397839585892,1.06355
1397839645892,1.05051
1397839705892,1.06715
1397839765892,1.05697
1397839825892,1.06019
1397839885892,1.05936
1397839945892,1.06055
1397840005892,1.05686
1397840065892,1.06024
1397840125892,1.05635
1397840185892,1.05429
1397840245892,1.05946
1397840305892,1.05131
1397840365892,1.06518
1397840425902,1.05660
1397840485902,1.06199
1397840545902,1.06474
1397840605902,1.06994
1397840665902,1.06388
1397840725902,1.06160
1397840785902,1.06336
1397840845902,1.05706
1397840905902,1.06281
1397840965902,1.06765
1397841025902,1.05968
1397841085902,1.07372
1397841145902,1.07161
1397841205902,1.06315
1397841265902,1.07599
1397841325902,1.08530
1397841385902,1.07653
1397841445902,1.07138
1397841505902,1.06526
1397841565902,1.07337
1397841625902,1.07985
1397841685902,1.07497
1397841745902,1.07850
1397841805902,1.07484
1397841865902,1.08754
1397841925902,1.08671
1397841985902,1.07922
1397842045902,1.07283
1397842105902,1.08032
1397842165902,1.08169
1397842225902,1.07031
1397842285902,1.08110
1397842345902,1.07198
1397842405902,1.07473
1397842465902,1.06788
1397842525902,1.07232
1397842585902,1.06672
1397842645902,1.06840
1397842705902,1.06459
1397842765902,1.07426
1397842825902,1.06651
1397842885902,1.06679
1397842945902,1.06371
1397843005902,1.07117
1397843065902,1.07357
1397843125902,1.06827
1397843185902,1.06493
1397843245902,1.07111
1397843305902,1.06334
1397843365902,1.06680
1397843425902,1.06406
1397843485902,1.07065
1397843545902,1.06888
1397843605902,1.08518
1397843665902,1.07287
1397843725902,1.07428
1397843785902,1.06230
1397843845902,1.06072
1397843905902,1.07057
1397843965902,1.07128
1397844025912,1.06329
1397844085912,1.05297
1397844145912,1.06934
1397844205912,1.06377
1397844265912,1.06769
1397844325912,1.06163
1397844385912,1.04957
1397844445912,1.06188
1397844505912,1.06006
1397844565912,1.05319